Hourly Weather Roundup
Issued by NWS Central Illinois

Home | Current Version | Previous Version | Text Only | Print | Product List | Glossary On
Versions: 1 2 3 4 5 6 7 8 9 10 11 12 13 14 15 16 17 18 19 20 21 22 23 24 25 26 27 28 29 30 31 32 33 34 35 36 37 38 39 40 41 42 43 44 45 46 47 48 49 50
000
NZUS43 KILX 260010
HWRILX

AREA WEATHER ROUNDUP
NATIONAL WEATHER SERVICE, LINCOLN IL
600 PM CST TUE NOV 25 2014


CITY           SKY/WX    TMP DP  RH WIND       PRES   REMARKS
BLOOMINGTON    PTCLDY    26  21  81 N3        30.17R
6HR MIN TEMP:  23; 6HR MAX TEMP:  27;

CHAMPAIGN      CLOUDY    27  21  78 CALM      30.19R
6HR MIN TEMP:  26; 6HR MAX TEMP:  28;

DECATUR        CLEAR     29  23  78 SE3       30.18R
6HR MIN TEMP:  28; 6HR MAX TEMP:  32;

FLORA          PTCLDY    28  26  90 CALM      30.21R FOG
6HR MIN TEMP:  28; 6HR MAX TEMP:  33;

GALESBURG      PTCLDY    22  21  94 CALM      30.14S
JACKSONVILLE   CLEAR     32  23  70 CALM      30.15S
6HR MIN TEMP:  31; 6HR MAX TEMP:  38;

LACON          CLEAR     20  17  87 CALM      30.17R
6HR MIN TEMP:  20; 6HR MAX TEMP:  26;

LAWRENCEVILLE  CLOUDY    31  24  75 N3        30.21R
6HR MIN TEMP:  31; 6HR MAX TEMP:  35;

LITCHFIELD     CLEAR     31  25  77 CALM      30.17R
$$


CITY           SKY/WX    TMP DP  RH WIND       PRES   REMARKS
LINCOLN        CLEAR     27  23  84 CALM      30.19R
6HR MIN TEMP:  27; 6HR MAX TEMP:  34;

MACOMB         CLEAR     28  25  87 CALM      30.17S
MATTOON        CLOUDY    30  22  72 W7        30.18R WCI  23
6HR MIN TEMP:  28; 6HR MAX TEMP:  31;

MT CARMEL AP   CLOUDY    34  27  75 CALM      30.20S
OLNEY-NOBLE AP CLOUDY    32  27  80 CALM      30.21R
PARIS          CLOUDY    28  24  84 NW7       30.20R WCI  21
6HR MIN TEMP:  28; 6HR MAX TEMP:  29;

PEORIA         CLEAR     26  19  74 CALM      30.17R
6HR MIN TEMP:  26; 6HR MAX TEMP:  31;

PONTIAC        CLOUDY    25  21  83 W3        30.19R
RANTOUL        CLOUDY    28  23  79 W5        30.19R WCI  23
6HR MIN TEMP:  27; 6HR MAX TEMP:  29;

ROBINSON       CLOUDY    31  24  77 CALM      30.22R
6HR MIN TEMP:  31; 6HR MAX TEMP:  32;

SPRINGFIELD    CLEAR     28  23  81 SE5       30.17R WCI  23
6HR MIN TEMP:  28; 6HR MAX TEMP:  36;

TAYLORVILLE    CLEAR     28  27  93 CALM      30.18R
$$

...REGIONAL REPORTS...


CITY           SKY/WX    TMP DP  RH WIND       PRES   REMARKS
CHICAGO O`HARE PTCLDY    21  15  78 SW8       30.16R WCI  11
KANKAKEE       CLOUDY   N/A N/A N/A W8        30.19S
MOLINE         PTCLDY    21  16  81 SW3       30.15R
MOUNT VERNON   CLEAR     28  21  74 CALM      30.20R
PITTSFIELD     CLEAR     32  27  82 CALM      30.16R
QUINCY         CLEAR     31  19  61 CALM      30.14R
ROCKFORD       CLEAR     17  13  84 S5        30.16S WCI  10
$$


CITY           SKY/WX    TMP DP  RH WIND       PRES   REMARKS
BURLINGTON     FAIR      26  22  84 CALM      30.14R
CEDAR RAPIDS   CLEAR     21  17  84 E3        30.10F
DES MOINES     MOCLDY    33   8  35 SE8       30.05F WCI  26
KIRKSVILLE     CLEAR     29  17  61 S6        30.11F WCI  23
OTTUMWA        CLEAR     26  16  65 SE6       30.10S WCI  19
ST LOUIS       PTCLDY    38  21  50 CALM      30.17R
$$


CITY           SKY/WX    TMP DP  RH WIND       PRES   REMARKS
TERRE HAUTE    CLOUDY    29  21  72 CALM      30.21R
EVANSVILLE     PTCLDY    34  27  75 N6        30.19S WCI  29
INDIANAPOLIS   CLOUDY    28  22  78 NW6       30.18R WCI  22
LAFAYETTE      CLOUDY    25  19  78 NW3       30.20R
MADISON        MOCLDY    22  15  75 CALM      30.11F
MILWAUKEE      CLOUDY    22  15  75 W9        30.14R WCI  12
$$




USA.gov is the U.S. government's official web portal to all federal, state and local government web resources and services.